Overview Statistics Trail Chart Weather Telemetry Raw packets
 

This is the latest recevied weather packets stored in our database for station/object KC3UTO. If no packets are shown the sender has not sent any weather packets the latest 10 day(s).

<< 3 4 5 6 7 8 9 >>
Time Temp. Humidity Pressure Rain* Wind** Luminosity Snow
1788541295 29.44° C 59% 1012.1 hPa 0 mm - 333 W/m² -
1788540994 30° C 59% 1012.3 hPa 0 mm - 301 W/m² -
1788540693 29.44° C 60% 1012.3 hPa 0 mm - 937 W/m² -
1788540393 28.89° C 60% 1012.1 hPa 0 mm - 337 W/m² -
1788540089 28.89° C 63% 1012.3 hPa 0 mm - 275 W/m² -
1788539784 27.78° C 64% 1012.6 hPa 0 mm - 281 W/m² -
1788539480 27.78° C 63% 1012.6 hPa 0 mm - 252 W/m² -
1788539179 28.33° C 65% 1012.5 hPa 0 mm - 271 W/m² -
1788538875 28.33° C 63% 1012.5 hPa 0 mm - 190 W/m² -
1788538570 28.33° C 62% 1012.5 hPa 0 mm - 407 W/m² -
1788538265 28.33° C 63% 1012.3 hPa 0 mm - 238 W/m² -
1788537960 28.33° C 62% 1012.5 hPa 0 mm - 213 W/m² -
1788537656 28.33° C 64% 1012.3 hPa 0 mm - 236 W/m² -
1788537355 28.33° C 64% 1012.5 hPa 0 mm - 262 W/m² -
1788537050 28.33° C 65% 1012.4 hPa 0 mm - 481 W/m² -
1788536747 27.78° C 65% 1012.5 hPa 0 mm - 200 W/m² -
1788536439 27.78° C 66% 1012.8 hPa 0 mm - 186 W/m² -
1788536138 27.78° C 65% 1012.6 hPa 0 mm - 132 W/m² -
1788535834 27.78° C 66% 1012.5 hPa 0 mm - 260 W/m² -
1788535530 27.78° C 67% 1012.6 hPa 0 mm - 240 W/m² -
1788535226 27.78° C 68% 1012.4 hPa 0 mm - 191 W/m² -
1788534921 27.22° C 68% 1012.4 hPa 0 mm - 226 W/m² -
1788534620 27.78° C 67% 1012.7 hPa 0 mm - 203 W/m² -
1788534320 28.33° C 66% 1012.5 hPa 0 mm - 172 W/m² -
1788534015 28.33° C 66% 1012.6 hPa 0 mm - 641 W/m² -

* Rain latest hour (hover to see other rain measurements)
** Current wind speed in m/s (hover to see current wind gust speed)